This is the latest recevied weather packets stored in our database for station/object KC2G. If no packets are shown the sender has not sent any weather packets the latest 10 day(s).
| Time | Temp. | Humidity | Pressure | Rain* | Wind** | Luminosity | Snow |
|---|---|---|---|---|---|---|---|
| 1777413144 | 16.11° C | 50% | 1017.2 hPa | 0 mm | 0.45 m/s, 129° | - | - |
| 1777412755 | 16.11° C | 50% | 1017.2 hPa | 0 mm | 0.45 m/s, 129° | - | - |
| 1777411856 | 16.11° C | 50% | 1017.2 hPa | 0 mm | 0.45 m/s, 129° | - | - |
| 1777410954 | 16.11° C | 50% | 1017.2 hPa | 0 mm | 0.45 m/s, 129° | - | - |
| 1777410055 | 16.11° C | 51% | 1017.1 hPa | 0 mm | 0.89 m/s, 89° | - | - |
| 1777409154 | 16.67° C | 50% | 1017.1 hPa | 0 mm | 0.45 m/s, 75° | - | - |
| 1777408255 | 16.67° C | 50% | 1017.3 hPa | 0 mm | 0.45 m/s, 84° | - | - |
| 1777407355 | 16.11° C | 49% | 1017.5 hPa | 0 mm | 0.45 m/s, 127° | - | - |
| 1777407354 | 16.67° C | 51% | 1017.9 hPa | 0 mm | 0.45 m/s, 123° | - | - |
| 1777406455 | 16.67° C | 49% | 1017.6 hPa | 0 mm | 0.45 m/s, 85° | - | - |
| 1777405555 | 16.67° C | 51% | 1017.9 hPa | 0 mm | 0.45 m/s, 123° | - | - |
| 1777405435 | 16.67° C | 46% | 1018.2 hPa | 0 mm | 0.45 m/s, 209° | - | - |
| 1777404655 | 16.67° C | 46% | 1017.9 hPa | 0 mm | 0.45 m/s, 121° | - | - |
| 1777403755 | 16.67° C | 46% | 1018.2 hPa | 0 mm | 0.45 m/s, 209° | - | - |
| 1777403036 | 16.67° C | 45% | 1018.6 hPa | 0 mm | 0.45 m/s, 135° | - | - |
| 1777402855 | 16.67° C | 45% | 1018.6 hPa | 0 mm | 0.45 m/s, 135° | - | - |
| 1777401954 | 17.22° C | 45% | 1018.5 hPa | 0 mm | 0.45 m/s, 187° | - | - |
| 1777401602 | 17.78° C | 44% | 1018.3 hPa | 0 mm | 0.45 m/s, 147° | - | - |
| 1777401055 | 17.22° C | 45% | 1018.4 hPa | 0 mm | 0.45 m/s, 169° | - | - |
| 1777400154 | 17.78° C | 44% | 1018.3 hPa | 0 mm | 0.45 m/s, 147° | - | - |
| 1777399255 | 17.78° C | 43% | 1018.5 hPa | 0 mm | 0.89 m/s, 116° | - | - |
| 1777398355 | 17.78° C | 41% | 1018.6 hPa | 0 mm | 0.45 m/s, 150° | - | - |
| 1777397455 | 17.78° C | 42% | 1018.7 hPa | 0 mm | 0.45 m/s, 90° | - | - |
| 1777396555 | 17.78° C | 41% | 1018.8 hPa | 0 mm | 0 m/s | - | - |
| 1777395655 | 17.78° C | 42% | 1019 hPa | 0 mm | 1.34 m/s, 88° | - | - |
* Rain latest hour (hover to see other rain measurements)
** Current wind speed in m/s (hover to see current wind gust speed)